This is the latest recevied weather packets stored in our database for station/object SP8PUB-10. If no packets are shown the sender has not sent any weather packets the latest 10 day(s).
| Time | Temp. | Humidity | Pressure | Rain* | Wind** | Luminosity | Snow |
|---|---|---|---|---|---|---|---|
| 1778191843 | 13.89° C | 100% | 1015 hPa | - | - | - | - |
| 1778190943 | 14.44° C | 100% | 1015.1 hPa | - | - | - | - |
| 1778190043 | 14.44° C | 100% | 1015.1 hPa | - | - | - | - |
| 1778189143 | 14.44° C | 100% | 1014.9 hPa | - | - | - | - |
| 1778188243 | 14.44° C | 100% | 1015 hPa | - | - | - | - |
| 1778187343 | 14.44° C | 100% | 1015 hPa | - | - | - | - |
| 1778186443 | 14.44° C | 100% | 1014.7 hPa | - | - | - | - |
| 1778185543 | 14.44° C | 100% | 1014.7 hPa | - | - | - | - |
| 1778184643 | 14.44° C | 100% | 1014.6 hPa | - | - | - | - |
| 1778183742 | 14.44° C | 100% | 1014.4 hPa | - | - | - | - |
| 1778182841 | 14.44° C | 100% | 1014.2 hPa | - | - | - | - |
| 1778181941 | 14.44° C | 100% | 1014.1 hPa | - | - | - | - |
| 1778181041 | 14.44° C | 100% | 1013.8 hPa | - | - | - | - |
| 1778180141 | 14.44° C | 100% | 1013.6 hPa | - | - | - | - |
| 1778179241 | 14.44° C | 100% | 1013.8 hPa | - | - | - | - |
| 1778178341 | 14.44° C | 100% | 1013.7 hPa | - | - | - | - |
| 1778176546 | 15° C | 100% | 1013.4 hPa | - | - | - | - |
| 1778175645 | 15° C | 100% | 1013.3 hPa | - | - | - | - |
| 1778174745 | 15.56° C | 100% | 1013.3 hPa | - | - | - | - |
| 1778173845 | 16.67° C | 95% | 1013.2 hPa | - | - | - | - |
| 1778172945 | 17.22° C | 87% | 1012.8 hPa | - | - | - | - |
| 1778172045 | 17.78° C | 87% | 1012.7 hPa | - | - | - | - |
| 1778171145 | 17.78° C | 90% | 1012.7 hPa | - | - | - | - |
| 1778170245 | 18.33° C | 94% | 1012.6 hPa | - | - | - | - |
| 1778169345 | 18.89° C | 92% | 1012.3 hPa | - | - | - | - |
* Rain since midnight (hover to see other rain measurements)
** Current wind speed in m/s (hover to see current wind gust speed)